| time (UTC) | temp F | wind direction | speed MPH | gust MPH | rain 1hr in | rain 24hr in | rain mn in | humidity % | barometer mb |
| 20260510001817 | 57 | 339 | 0.0 | 6.0 | 0.00 | 0.03 | 0.03 | 33 | 1009.6 |
| 20260510001320 | 58 | 344 | 0.0 | 5.0 | 0.00 | 0.03 | 0.03 | 32 | 1009.4 |
| 20260510000823 | 58 | 341 | 1.0 | 5.0 | 0.00 | 0.03 | 0.03 | 32 | 1009.3 |
| 20260510000320 | 58 | 305 | 0.0 | 5.0 | 0.00 | 0.03 | 0.03 | 32 | 1009.3 |
| 20260509235822 | 58 | 343 | 0.0 | 5.0 | 0.00 | 0.03 | 0.03 | 32 | 1009.3 |
| 20260509235320 | 58 | 331 | 0.0 | 5.0 | 0.00 | 0.03 | 0.03 | 32 | 1009.2 |
| 20260509234827 | 58 | 25 | 0.0 | 5.0 | 0.00 | 0.03 | 0.03 | 31 | 1009.2 |
| 20260509234335 | 58 | 290 | 0.0 | 5.0 | 0.00 | 0.03 | 0.03 | 32 | 1009.1 |
| 20260509233822 | 58 | 355 | 0.0 | 5.0 | 0.00 | 0.03 | 0.03 | 32 | 1009.0 |
| 20260509233338 | 58 | 350 | 0.0 | 4.0 | 0.00 | 0.03 | 0.03 | 31 | 1009.0 |
| 20260509232841 | 58 | 337 | 0.0 | 2.0 | 0.00 | 0.03 | 0.03 | 33 | 1008.9 |
| 20260509232348 | 58 | 317 | 0.0 | 2.0 | 0.00 | 0.03 | 0.03 | 32 | 1008.9 |
| 20260509231824 | 58 | 319 | 0.0 | 6.0 | 0.00 | 0.03 | 0.03 | 32 | 1008.9 |
| 20260509231322 | 58 | 346 | 0.0 | 6.0 | 0.00 | 0.03 | 0.03 | 31 | 1008.8 |
| 20260509230839 | 59 | 320 | 0.0 | 6.0 | 0.00 | 0.03 | 0.03 | 31 | 1008.7 |
| 20260509230326 | 59 | 355 | 0.0 | 5.0 | 0.00 | 0.03 | 0.03 | 32 | 1008.7 |
| 20260509225827 | 58 | 279 | 0.0 | 5.0 | 0.00 | 0.03 | 0.03 | 32 | 1008.7 |
| 20260509225324 | 58 | 325 | 0.0 | 4.0 | 0.00 | 0.03 | 0.03 | 32 | 1008.7 |
| 20260509224901 | 58 | 315 | 0.0 | 4.0 | 0.00 | 0.03 | 0.03 | 32 | 1008.6 |
| 20260509224314 | 58 | 355 | 0.0 | 7.0 | 0.00 | 0.03 | 0.03 | 31 | 1008.6 |
| 20260509223826 | 59 | 286 | 0.0 | 5.0 | 0.00 | 0.03 | 0.03 | 30 | 1008.6 |
| 20260509223344 | 59 | 28 | 0.0 | 7.0 | 0.00 | 0.03 | 0.03 | 31 | 1008.4 |
| 20260509222823 | 59 | 10 | 1.0 | 7.0 | 0.00 | 0.03 | 0.03 | 30 | 1008.5 |
| 20260509222319 | 59 | 326 | 0.0 | 4.0 | 0.00 | 0.03 | 0.03 | 31 | 1008.4 |
| 20260509221826 | 59 | 338 | 0.0 | 5.0 | 0.00 | 0.03 | 0.03 | 30 | 1008.4 |
| 20260509221331 | 59 | 284 | 1.0 | 6.0 | 0.00 | 0.03 | 0.03 | 30 | 1008.5 |
| 20260509220820 | 60 | 11 | 0.0 | 6.0 | 0.00 | 0.03 | 0.03 | 29 | 1008.4 |
| 20260509220335 | 59 | 294 | 1.0 | 5.0 | 0.00 | 0.03 | 0.03 | 30 | 1008.3 |
| 20260509215838 | 59 | 360 | 0.0 | 13.0 | 0.00 | 0.03 | 0.03 | 30 | 1008.2 |
| 20260509215327 | 59 | 336 | 1.0 | 13.0 | 0.00 | 0.03 | 0.03 | 31 | 1008.4 |
| 20260509214824 | 59 | 355 | 1.0 | 8.0 | 0.00 | 0.03 | 0.03 | 32 | 1008.3 |
| 20260509214326 | 59 | 355 | 0.0 | 6.0 | 0.00 | 0.03 | 0.03 | 30 | 1008.4 |
| 20260509213815 | 59 | 13 | 1.0 | 7.0 | 0.00 | 0.03 | 0.03 | 30 | 1008.3 |
| 20260509213332 | 59 | 9 | 2.0 | 7.0 | 0.00 | 0.03 | 0.03 | 30 | 1008.0 |
| 20260509212834 | 59 | 9 | 0.0 | 4.0 | 0.00 | 0.03 | 0.03 | 30 | 1008.1 |
| 20260509212322 | 59 | 314 | 0.0 | 5.0 | 0.00 | 0.03 | 0.03 | 29 | 1008.1 |
| 20260509211839 | 59 | 351 | 1.0 | 7.0 | 0.00 | 0.03 | 0.03 | 29 | 1008.1 |
| 20260509211323 | 59 | 325 | 1.0 | 7.0 | 0.00 | 0.03 | 0.03 | 29 | 1008.2 |
| 20260509210835 | 59 | 334 | 1.0 | 5.0 | 0.00 | 0.03 | 0.03 | 32 | 1007.9 |
| 20260509210332 | 59 | 303 | 0.0 | 5.0 | 0.00 | 0.03 | 0.03 | 32 | 1007.9 |
| 20260509205815 | 59 | 295 | 0.0 | 5.0 | 0.00 | 0.03 | 0.03 | 32 | 1007.9 |
| 20260509205331 | 59 | 333 | 0.0 | 4.0 | 0.00 | 0.03 | 0.03 | 31 | 1007.9 |
| 20260509204820 | 59 | 331 | 1.0 | 4.0 | 0.00 | 0.03 | 0.03 | 33 | 1007.8 |
| 20260509204327 | 59 | 247 | 0.0 | 4.0 | 0.00 | 0.03 | 0.03 | 33 | 1007.8 |
| 20260509203815 | 59 | 321 | 1.0 | 4.0 | 0.00 | 0.03 | 0.03 | 33 | 1007.8 |
| 20260509203332 | 59 | 299 | 0.0 | 5.0 | 0.00 | 0.03 | 0.03 | 33 | 1007.7 |
| 20260509202835 | 59 | 300 | 0.0 | 5.0 | 0.00 | 0.03 | 0.03 | 33 | 1007.8 |
| 20260509202323 | 59 | 360 | 0.0 | 5.0 | 0.00 | 0.03 | 0.03 | 33 | 1007.8 |
| 20260509201840 | 59 | 330 | 0.0 | 4.0 | 0.00 | 0.03 | 0.03 | 33 | 1007.8 |
| 20260509201322 | 58 | 269 | 0.0 | 6.0 | 0.00 | 0.03 | 0.03 | 35 | 1007.7 |
| 20260509200840 | 58 | 281 | 1.0 | 6.0 | 0.00 | 0.03 | 0.03 | 33 | 1007.6 |
| 20260509200328 | 58 | 318 | 1.0 | 6.0 | 0.00 | 0.03 | 0.03 | 34 | 1007.7 |
| 20260509195851 | 59 | 335 | 1.0 | 6.0 | 0.00 | 0.03 | 0.03 | 33 | 1007.6 |
| 20260509195415 | 58 | 360 | 1.0 | 4.0 | 0.00 | 0.03 | 0.03 | 34 | 1007.5 |
| 20260509194821 | 58 | 312 | 1.0 | 7.0 | 0.00 | 0.03 | 0.03 | 33 | 1007.5 |
| 20260509194319 | 58 | 350 | 0.0 | 9.0 | 0.00 | 0.03 | 0.03 | 33 | 1007.5 |
| 20260509193836 | 58 | 14 | 1.0 | 9.0 | 0.00 | 0.03 | 0.03 | 33 | 1007.5 |
| 20260509193341 | 58 | 323 | 0.0 | 6.0 | 0.00 | 0.03 | 0.03 | 33 | 1007.5 |
| 20260509192822 | 58 | 305 | 1.0 | 4.0 | 0.00 | 0.03 | 0.03 | 33 | 1007.5 |
| 20260509192320 | 58 | 315 | 0.0 | 4.0 | 0.00 | 0.03 | 0.03 | 34 | 1007.4 |
| 20260509191837 | 58 | 306 | 0.0 | 4.0 | 0.00 | 0.03 | 0.03 | 33 | 1007.3 |
| 20260509191340 | 58 | 304 | 0.0 | 5.0 | 0.00 | 0.03 | 0.03 | 34 | 1007.4 |
| 20260509190828 | 57 | 322 | 1.0 | 5.0 | 0.00 | 0.03 | 0.03 | 34 | 1007.3 |
| 20260509190344 | 57 | 11 | 1.0 | 4.0 | 0.00 | 0.03 | 0.03 | 35 | 1007.4 |
| 20260509185845 | 57 | 320 | 1.0 | 6.0 | 0.00 | 0.03 | 0.03 | 35 | 1007.4 |
| 20260509185320 | 57 | 351 | 2.0 | 6.0 | 0.00 | 0.03 | 0.03 | 34 | 1007.3 |
| 20260509184827 | 57 | 336 | 0.0 | 8.0 | 0.00 | 0.03 | 0.03 | 34 | 1007.3 |
| 20260509184358 | 57 | 327 | 1.0 | 8.0 | 0.00 | 0.03 | 0.03 | 35 | 1007.3 |
| 20260509183825 | 57 | 309 | 1.0 | 8.0 | 0.00 | 0.03 | 0.03 | 35 | 1007.2 |
| 20260509183323 | 57 | 9 | 1.0 | 6.0 | 0.00 | 0.03 | 0.03 | 33 | 1007.2 |
| 20260509182825 | 57 | 355 | 0.0 | 11.0 | 0.00 | 0.03 | 0.03 | 36 | 1007.0 |
| 20260509182328 | 57 | 341 | 0.0 | 11.0 | 0.00 | 0.03 | 0.03 | 37 | 1007.2 |
| 20260509181823 | 57 | 302 | 0.0 | 4.0 | 0.00 | 0.03 | 0.03 | 36 | 1007.0 |
| 20260509181321 | 56 | 311 | 0.0 | 4.0 | 0.00 | 0.03 | 0.03 | 37 | 1007.1 |
| 20260509180817 | 56 | 311 | 0.0 | 4.0 | 0.00 | 0.03 | 0.03 | 37 | 1007.0 |
| 20260509180325 | 56 | 38 | 1.0 | 3.0 | 0.00 | 0.03 | 0.03 | 40 | 1007.0 |
| 20260509175829 | 56 | 271 | 0.0 | 6.0 | 0.00 | 0.03 | 0.03 | 40 | 1007.0 |
| 20260509175337 | 56 | 337 | 0.0 | 6.0 | 0.00 | 0.03 | 0.03 | 41 | 1007.0 |
| 20260509174832 | 56 | 308 | 0.0 | 5.0 | 0.00 | 0.03 | 0.03 | 39 | 1006.9 |
| 20260509174316 | 56 | 319 | 0.0 | 5.0 | 0.00 | 0.03 | 0.03 | 41 | 1006.9 |
| 20260509173823 | 55 | 284 | 0.0 | 5.0 | 0.00 | 0.03 | 0.03 | 39 | 1006.8 |
| 20260509173316 | 55 | 330 | 1.0 | 5.0 | 0.00 | 0.03 | 0.03 | 39 | 1006.8 |
| 20260509172840 | 55 | 308 | 0.0 | 5.0 | 0.00 | 0.03 | 0.03 | 40 | 1006.7 |
| 20260509172335 | 55 | 360 | 1.0 | 4.0 | 0.00 | 0.03 | 0.03 | 40 | 1006.8 |
| 20260509171828 | 55 | 360 | 0.0 | 5.0 | 0.00 | 0.03 | 0.03 | 41 | 1006.7 |
| 20260509171331 | 55 | 17 | 1.0 | 6.0 | 0.00 | 0.03 | 0.03 | 42 | 1006.7 |
| 20260509170818 | 55 | 351 | 0.0 | 6.0 | 0.00 | 0.03 | 0.03 | 42 | 1006.7 |
| 20260509170315 | 55 | 322 | 1.0 | 5.0 | 0.00 | 0.03 | 0.03 | 43 | 1006.7 |
| 20260509165813 | 55 | 31 | 2.0 | 6.0 | 0.00 | 0.03 | 0.03 | 41 | 1006.6 |
| 20260509165322 | 55 | 11 | 1.0 | 6.0 | 0.00 | 0.03 | 0.03 | 41 | 1006.6 |
| 20260509164818 | 55 | 323 | 1.0 | 5.0 | 0.00 | 0.03 | 0.03 | 42 | 1006.6 |
| 20260509164320 | 55 | 279 | 327.0 | 327.0 | 0.00 | 0.00 | 0.03 | 42 | 1006.4 |
| 20260509163830 | 55 | 17 | 1.0 | 7.0 | 0.00 | 0.03 | 0.03 | 43 | 1006.4 |
| 20260509163327 | 54 | 292 | 1.0 | 7.0 | 0.00 | 0.03 | 0.03 | 44 | 1006.4 |
| 20260509162822 | 54 | 355 | 1.0 | 6.0 | 0.00 | 0.03 | 0.03 | 43 | 1006.3 |
| 20260509162320 | 54 | 355 | 0.0 | 5.0 | 0.00 | 0.03 | 0.03 | 44 | 1006.3 |
| 20260509161827 | 53 | 324 | 1.0 | 5.0 | 0.00 | 0.03 | 0.03 | 46 | 1006.2 |
| 20260509161333 | 53 | 321 | 0.0 | 9.0 | 0.00 | 0.03 | 0.03 | 46 | 1006.3 |
| 20260509160821 | 53 | 304 | 1.0 | 9.0 | 0.00 | 0.03 | 0.03 | 46 | 1006.2 |
| 20260509160317 | 53 | 315 | 1.0 | 10.0 | 0.00 | 0.03 | 0.03 | 44 | 1006.1 |
| 20260509155821 | 53 | 333 | 0.0 | 10.0 | 0.00 | 0.03 | 0.03 | 47 | 1006.0 |
| 20260509155328 | 53 | 313 | 1.0 | 7.0 | 0.00 | 0.03 | 0.03 | 47 | 1006.0 |
| 20260509154825 | 54 | 315 | 1.0 | 7.0 | 0.00 | 0.03 | 0.03 | 45 | 1005.9 |
| 20260509154326 | 54 | 331 | 0.0 | 5.0 | 0.00 | 0.03 | 0.03 | 50 | 1005.7 |
| 20260509153842 | 54 | 355 | 1.0 | 6.0 | 0.00 | 0.03 | 0.03 | 48 | 1005.7 |
| 20260509153335 | 54 | 344 | 1.0 | 6.0 | 0.00 | 0.03 | 0.03 | 48 | 1005.5 |
| 20260509152837 | 54 | 327 | 0.0 | 4.0 | 0.00 | 0.03 | 0.03 | 54 | 1005.5 |
| 20260509152320 | 54 | 311 | 0.0 | 4.0 | 0.00 | 0.03 | 0.03 | 52 | 1005.4 |
| 20260509151836 | 54 | 355 | 1.0 | 5.0 | 0.00 | 0.03 | 0.03 | 52 | 1005.3 |
| 20260509151321 | 53 | 316 | 0.0 | 5.0 | 0.00 | 0.03 | 0.03 | 53 | 1005.2 |
| 20260509150828 | 53 | 302 | 1.0 | 4.0 | 0.00 | 0.03 | 0.03 | 51 | 1005.2 |
| 20260509150325 | 53 | 350 | 1.0 | 5.0 | 0.00 | 0.03 | 0.03 | 54 | 1005.1 |
| 20260509145824 | 53 | 325 | 0.0 | 7.0 | 0.00 | 0.03 | 0.03 | 55 | 1004.9 |
| 20260509145401 | 53 | 13 | 1.0 | 7.0 | 0.00 | 0.03 | 0.03 | 56 | 1004.9 |
| 20260509144827 | 53 | 338 | 0.0 | 5.0 | 0.00 | 0.03 | 0.03 | 57 | 1004.8 |
| 20260509144323 | 53 | 313 | 0.0 | 5.0 | 0.00 | 0.03 | 0.03 | 57 | 1004.9 |
| 20260509143820 | 53 | 312 | 0.0 | 2.0 | 0.00 | 0.03 | 0.03 | 60 | 1004.7 |
| 20260509143337 | 52 | 332 | 0.0 | 5.0 | 0.00 | 0.03 | 0.03 | 62 | 1004.7 |
| 20260509142840 | 52 | 340 | 0.0 | 5.0 | 0.00 | 0.03 | 0.03 | 62 | 1004.6 |
| 20260509142327 | 52 | 333 | 0.0 | 5.0 | 0.00 | 0.03 | 0.03 | 63 | 1004.5 |
| 20260509141822 | 52 | 315 | 0.0 | 4.0 | 0.00 | 0.03 | 0.03 | 64 | 1004.5 |
| 20260509141328 | 51 | 18 | 0.0 | 4.0 | 0.00 | 0.03 | 0.03 | 66 | 1004.5 |
| 20260509140813 | 51 | 338 | 0.0 | 2.0 | 0.00 | 0.03 | 0.03 | 66 | 1004.4 |
| 20260509140329 | 51 | 355 | 0.0 | 7.0 | 0.00 | 0.03 | 0.03 | 68 | 1004.4 |
| 20260509135814 | 51 | 297 | 1.0 | 7.0 | 0.00 | 0.03 | 0.03 | 68 | 1004.4 |
| 20260509135318 | 51 | 299 | 0.0 | 6.0 | 0.00 | 0.03 | 0.03 | 68 | 1004.4 |
| 20260509134815 | 51 | 340 | 1.0 | 6.0 | 0.00 | 0.03 | 0.03 | 69 | 1004.2 |
| 20260509134321 | 51 | 15 | 1.0 | 5.0 | 0.00 | 0.03 | 0.03 | 71 | 1004.2 |
| 20260509133838 | 50 | 333 | 1.0 | 4.0 | 0.00 | 0.03 | 0.03 | 71 | 1004.1 |
| 20260509133325 | 50 | 355 | 0.0 | 4.0 | 0.00 | 0.03 | 0.03 | 73 | 1004.1 |
| 20260509132847 | 50 | 348 | 0.0 | 6.0 | 0.00 | 0.03 | 0.03 | 75 | 1004.0 |
| 20260509132313 | 50 | 349 | 0.0 | 5.0 | 0.00 | 0.03 | 0.03 | 78 | 1004.0 |
| 20260509131850 | 49 | 351 | 0.0 | 5.0 | 0.00 | 0.03 | 0.03 | 80 | 1003.9 |
| 20260509131331 | 49 | 360 | 0.0 | 5.0 | 0.00 | 0.03 | 0.03 | 82 | 1003.9 |
| 20260509130819 | 49 | 349 | 0.0 | 2.0 | 0.00 | 0.03 | 0.03 | 83 | 1003.8 |
| 20260509130335 | 49 | 306 | 0.0 | 2.0 | 0.00 | 0.03 | 0.03 | 85 | 1003.7 |
| 20260509125837 | 48 | 327 | 0.0 | 1.0 | 0.00 | 0.03 | 0.03 | 85 | 1003.6 |
| 20260509125324 | 48 | 5 | 0.0 | 0.0 | 0.00 | 0.03 | 0.03 | 86 | 1003.6 |
| 20260509124820 | 48 | 5 | 0.0 | 1.0 | 0.00 | 0.03 | 0.03 | 86 | 1003.4 |
| 20260509124340 | 48 | 327 | 0.0 | 1.0 | 0.00 | 0.03 | 0.03 | 86 | 1003.3 |
| 20260509123814 | 48 | 350 | 0.0 | 0.0 | 0.00 | 0.03 | 0.03 | 87 | 1003.2 |
| 20260509123331 | 48 | 321 | 0.0 | 0.0 | 0.00 | 0.03 | 0.03 | 87 | 1003.2 |
| 20260509122834 | 48 | 306 | 0.0 | 2.0 | 0.00 | 0.03 | 0.03 | 88 | 1003.1 |
| 20260509122321 | 48 | 340 | 0.0 | 4.0 | 0.00 | 0.03 | 0.03 | 88 | 1003.0 |
| 20260509121837 | 48 | 284 | 0.0 | 4.0 | 0.00 | 0.03 | 0.03 | 88 | 1002.9 |
| 20260509121321 | 48 | 254 | 0.0 | 1.0 | 0.00 | 0.03 | 0.03 | 88 | 1002.9 |
| 20260509120859 | 48 | 297 | 0.0 | 1.0 | 0.00 | 0.03 | 0.03 | 88 | 1002.7 |
| 20260509120324 | 48 | 318 | 0.0 | 1.0 | 0.00 | 0.03 | 0.03 | 88 | 1002.7 |
| 20260509115819 | 48 | 290 | 0.0 | 2.0 | 0.00 | 0.03 | 0.03 | 88 | 1002.7 |
| 20260509115314 | 48 | 312 | 0.0 | 2.0 | 0.00 | 0.03 | 0.03 | 88 | 1002.6 |
| 20260509114828 | 48 | 300 | 0.0 | 1.0 | 0.00 | 0.03 | 0.03 | 88 | 1002.6 |
| 20260509114334 | 48 | 13 | 0.0 | 1.0 | 0.00 | 0.03 | 0.03 | 88 | 1002.4 |
| 20260509113821 | 48 | 329 | 0.0 | 1.0 | 0.00 | 0.03 | 0.03 | 88 | 1002.2 |
| 20260509113318 | 48 | 319 | 0.0 | 1.0 | 0.00 | 0.03 | 0.03 | 88 | 1002.1 |
| 20260509112823 | 48 | 290 | 0.0 | 0.0 | 0.00 | 0.03 | 0.03 | 88 | 1002.0 |
| 20260509112330 | 48 | 344 | 0.0 | 0.0 | 0.00 | 0.03 | 0.03 | 88 | 1001.9 |
| 20260509111827 | 48 | 292 | 0.0 | 0.0 | 0.00 | 0.03 | 0.03 | 88 | 1001.8 |
| 20260509111327 | 48 | 288 | 0.0 | 0.0 | 0.00 | 0.03 | 0.03 | 88 | 1001.8 |
| 20260509110844 | 48 | 285 | 0.0 | 0.0 | 0.00 | 0.03 | 0.03 | 88 | 1001.6 |
| 20260509110330 | 49 | 301 | 0.0 | 0.0 | 0.01 | 0.03 | 0.03 | 88 | 1001.4 |
| 20260509105901 | 49 | 296 | 0.0 | 0.0 | 0.01 | 0.03 | 0.03 | 88 | 1001.3 |
| 20260509105327 | 49 | 294 | 0.0 | 0.0 | 0.01 | 0.03 | 0.03 | 88 | 1001.1 |
| 20260509104824 | 49 | 298 | 0.0 | 0.0 | 0.01 | 0.03 | 0.03 | 88 | 1001.0 |
| 20260509104326 | 49 | 304 | 0.0 | 0.0 | 0.01 | 0.03 | 0.03 | 88 | 1001.0 |
| 20260509103813 | 49 | 313 | 0.0 | 0.0 | 0.01 | 0.03 | 0.03 | 87 | 1001.1 |
| 20260509103329 | 49 | 308 | 0.0 | 0.0 | 0.01 | 0.03 | 0.03 | 87 | 1001.0 |
| 20260509102825 | 49 | 313 | 0.0 | 0.0 | 0.01 | 0.03 | 0.03 | 87 | 1001.0 |
| 20260509102321 | 49 | 313 | 0.0 | 0.0 | 0.02 | 0.03 | 0.03 | 87 | 1000.9 |
| 20260509101828 | 49 | 313 | 0.0 | 0.0 | 0.02 | 0.03 | 0.03 | 86 | 1000.7 |
| 20260509101332 | 49 | 313 | 0.0 | 0.0 | 0.02 | 0.03 | 0.03 | 86 | 1000.6 |
| 20260509100828 | 49 | 313 | 0.0 | 0.0 | 0.02 | 0.03 | 0.03 | 86 | 1000.5 |
| 20260509100315 | 49 | 313 | 0.0 | 0.0 | 0.02 | 0.02 | 0.02 | 85 | 1000.7 |
| 20260509095816 | 49 | 313 | 0.0 | 0.0 | 0.02 | 0.02 | 0.02 | 85 | 1000.5 |
| 20260509095313 | 49 | 313 | 0.0 | 0.0 | 0.02 | 0.02 | 0.02 | 85 | 1000.6 |
| 20260509094846 | 49 | 313 | 0.0 | 0.0 | 0.02 | 0.02 | 0.02 | 84 | 1000.7 |
| 20260509094323 | 50 | 313 | 0.0 | 0.0 | 0.02 | 0.02 | 0.02 | 84 | 1000.7 |
| 20260509093828 | 50 | 313 | 0.0 | 0.0 | 0.02 | 0.02 | 0.02 | 83 | 1000.5 |
| 20260509093344 | 50 | 311 | 0.0 | 0.0 | 0.02 | 0.02 | 0.02 | 82 | 1000.3 |
| 20260509092847 | 50 | 311 | 0.0 | 0.0 | 0.02 | 0.02 | 0.02 | 82 | 1000.3 |
| 20260509092332 | 50 | 311 | 0.0 | 0.0 | 0.01 | 0.01 | 0.01 | 81 | 1000.7 |
| 20260509091828 | 51 | 14 | 0.0 | 0.0 | 0.01 | 0.01 | 0.01 | 79 | 1000.9 |
| 20260509091326 | 51 | 325 | 0.0 | 1.0 | 0.01 | 0.01 | 0.01 | 78 | 1001.0 |
| 20260509090813 | 52 | 331 | 0.0 | 2.0 | 0.01 | 0.01 | 0.01 | 75 | 1001.1 |
| 20260509090329 | 52 | 338 | 0.0 | 2.0 | 0.00 | 0.00 | 0.00 | 73 | 1001.2 |
| 20260509085831 | 52 | 360 | 0.0 | 1.0 | 0.00 | 0.00 | 0.00 | 71 | 1001.1 |
| 20260509085326 | 52 | 351 | 0.0 | 0.0 | 0.00 | 0.00 | 0.00 | 70 | 1000.9 |
| 20260509084814 | 52 | 314 | 0.0 | 0.0 | 0.00 | 0.00 | 0.00 | 70 | 1000.7 |
| 20260509084406 | 53 | 323 | 0.0 | 2.0 | 0.00 | 0.00 | 0.00 | 69 | 1000.6 |
| 20260509083822 | 53 | 5 | 0.0 | 2.0 | 0.00 | 0.00 | 0.00 | 69 | 1000.6 |
| 20260509083320 | 53 | 11 | 0.0 | 2.0 | 0.00 | 0.00 | 0.00 | 68 | 1000.5 |
| 20260509082816 | 53 | 360 | 0.0 | 4.0 | 0.00 | 0.00 | 0.00 | 67 | 1000.6 |
| 20260509082333 | 53 | 294 | 0.0 | 4.0 | 0.00 | 0.00 | 0.00 | 67 | 1000.6 |
| 20260509081821 | 53 | 335 | 0.0 | 2.0 | 0.00 | 0.00 | 0.00 | 66 | 1000.6 |
| 20260509081347 | 54 | 5 | 0.0 | 2.0 | 0.00 | 0.00 | 0.00 | 65 | 1000.6 |
| 20260509080813 | 54 | 347 | 0.0 | 4.0 | 0.00 | 0.00 | 0.00 | 63 | 1000.7 |
| 20260509080349 | 54 | 29 | 0.0 | 4.0 | 0.00 | 0.00 | 0.00 | 62 | 1000.7 |
| 20260509075830 | 54 | 348 | 0.0 | 4.0 | 0.00 | 0.00 | 0.00 | 60 | 1000.5 |
| 20260509075326 | 54 | 350 | 0.0 | 4.0 | 0.00 | 0.00 | 0.00 | 58 | 1000.6 |
| 20260509074842 | 54 | 324 | 0.0 | 4.0 | 0.00 | 0.00 | 0.00 | 56 | 1000.4 |
| 20260509074347 | 54 | 304 | 0.0 | 2.0 | 0.00 | 0.00 | 0.00 | 53 | 1000.4 |
| 20260509073815 | 54 | 313 | 0.0 | 2.0 | 0.00 | 0.00 | 0.00 | 51 | 1000.5 |
| 20260509073331 | 54 | 42 | 0.0 | 2.0 | 0.00 | 0.00 | 0.00 | 50 | 1000.5 |
| 20260509072814 | 54 | 307 | 0.0 | 4.0 | 0.00 | 0.00 | 0.00 | 49 | 1000.3 |
| 20260509072321 | 53 | 333 | 0.0 | 5.0 | 0.00 | 0.00 | 0.00 | 49 | 1000.2 |
| 20260509071818 | 52 | 331 | 1.0 | 5.0 | 0.00 | 0.00 | 0.00 | 51 | 1000.3 |
| 20260509071316 | 51 | 295 | 0.0 | 2.0 | 0.00 | 0.00 | 0.00 | 52 | 1000.3 |
| 20260509070853 | 51 | 290 | 0.0 | 0.0 | 0.00 | 0.00 | 0.00 | 53 | 1000.2 |
| 20260509070319 | 51 | 275 | 0.0 | 0.0 | 0.00 | 0.00 | 0.00 | 53 | 1000.1 |
| 20260509065844 | 51 | 263 | 0.0 | 0.0 | 0.00 | 0.00 | 0.00 | 54 | 1000.1 |
| 20260509065340 | 51 | 260 | 0.0 | 0.0 | 0.00 | 0.00 | 0.00 | 54 | 1000.2 |
| 20260509064828 | 51 | 229 | 0.0 | 0.0 | 0.00 | 0.00 | 0.00 | 54 | 1000.2 |
| 20260509064330 | 50 | 229 | 0.0 | 0.0 | 0.00 | 0.00 | 0.00 | 54 | 1000.1 |
| 20260509063847 | 50 | 229 | 0.0 | 0.0 | 0.00 | 0.00 | 0.00 | 53 | 1000.1 |
| 20260509063402 | 50 | 229 | 0.0 | 0.0 | 0.00 | 0.00 | 0.00 | 52 | 1000.1 |
| 20260509062823 | 50 | 229 | 0.0 | 0.0 | 0.00 | 0.00 | 0.00 | 53 | 1000.1 |
| 20260509062330 | 50 | 229 | 0.0 | 0.0 | 0.00 | 0.00 | 0.00 | 54 | 1000.0 |
| 20260509061827 | 51 | 229 | 0.0 | 0.0 | 0.00 | 0.00 | 0.00 | 54 | 999.9 |
| 20260509061332 | 51 | 229 | 0.0 | 0.0 | 0.00 | 0.00 | 0.00 | 53 | 999.8 |
| 20260509060818 | 51 | 229 | 0.0 | 0.0 | 0.00 | 0.00 | 0.00 | 53 | 1000.0 |
| 20260509060317 | 51 | 229 | 0.0 | 0.0 | 0.00 | 0.00 | 0.00 | 51 | 999.9 |
| 20260509055815 | 51 | 229 | 0.0 | 0.0 | 0.00 | 0.00 | 0.00 | 53 | 999.9 |
| 20260509055319 | 52 | 229 | 0.0 | 0.0 | 0.00 | 0.00 | 0.00 | 52 | 999.9 |
| 20260509054832 | 52 | 228 | 0.0 | 0.0 | 0.00 | 0.00 | 0.00 | 52 | 999.6 |
| 20260509054315 | 53 | 229 | 0.0 | 0.0 | 0.00 | 0.00 | 0.00 | 47 | 999.6 |
| 20260509053822 | 53 | 229 | 0.0 | 0.0 | 0.00 | 0.00 | 0.00 | 47 | 999.7 |
| 20260509053318 | 53 | 229 | 0.0 | 0.0 | 0.00 | 0.00 | 0.00 | 46 | 999.8 |
| 20260509052820 | 54 | 231 | 0.0 | 0.0 | 0.00 | 0.00 | 0.00 | 41 | 1000.0 |
| 20260509052337 | 54 | 231 | 0.0 | 0.0 | 0.00 | 0.00 | 0.00 | 41 | 1000.1 |
| 20260509051825 | 54 | 237 | 0.0 | 0.0 | 0.00 | 0.00 | 0.00 | 43 | 1000.1 |
| 20260509051318 | 54 | 238 | 0.0 | 0.0 | 0.00 | 0.00 | 0.00 | 38 | 1000.2 |
| 20260509050814 | 54 | 241 | 0.0 | 0.0 | 0.00 | 0.00 | 0.00 | 38 | 1000.2 |
| 20260509050350 | 54 | 245 | 0.0 | 0.0 | 0.00 | 0.00 | 0.00 | 38 | 1000.4 |
| 20260509045831 | 54 | 248 | 0.0 | 0.0 | 0.00 | 0.00 | 0.00 | 38 | 1000.5 |
| 20260509045318 | 54 | 241 | 0.0 | 0.0 | 0.00 | 0.00 | 0.00 | 38 | 1000.3 |
| 20260509044834 | 55 | 233 | 0.0 | 0.0 | 0.00 | 0.00 | 0.00 | 39 | 1000.4 |
| 20260509044317 | 55 | 236 | 0.0 | 0.0 | 0.00 | 0.00 | 0.00 | 38 | 1000.2 |
| 20260509043825 | 55 | 252 | 0.0 | 0.0 | 0.00 | 0.00 | 0.00 | 40 | 1000.6 |
| 20260509043322 | 55 | 273 | 0.0 | 0.0 | 0.00 | 0.00 | 0.00 | 38 | 1000.6 |
| 20260509042821 | 55 | 275 | 0.0 | 0.0 | 0.00 | 0.00 | 0.00 | 36 | 1000.7 |
| 20260509042333 | 56 | 277 | 0.0 | 0.0 | 0.00 | 0.00 | 0.00 | 36 | 1000.7 |
| 20260509041821 | 56 | 277 | 0.0 | 0.0 | 0.00 | 0.00 | 0.00 | 35 | 1000.7 |
| 20260509041317 | 56 | 281 | 0.0 | 0.0 | 0.00 | 0.00 | 0.00 | 35 | 1000.8 |
| 20260509040813 | 57 | 277 | 0.0 | 0.0 | 0.00 | 0.00 | 0.00 | 35 | 1000.7 |
| 20260509040322 | 57 | 281 | 0.0 | 0.0 | 0.00 | 0.00 | 0.00 | 35 | 1000.8 |
| 20260509035833 | 57 | 281 | 0.0 | 0.0 | 0.00 | 0.00 | 0.00 | 34 | 1000.8 |
| 20260509035319 | 58 | 286 | 0.0 | 0.0 | 0.00 | 0.00 | 0.00 | 34 | 1001.0 |
| 20260509034836 | 58 | 286 | 0.0 | 0.0 | 0.00 | 0.00 | 0.00 | 34 | 1001.1 |
| 20260509034318 | 58 | 300 | 0.0 | 0.0 | 0.00 | 0.00 | 0.00 | 33 | 1001.1 |
| 20260509033825 | 58 | 296 | 0.0 | 0.0 | 0.00 | 0.00 | 0.00 | 34 | 1001.1 |
| 20260509033322 | 58 | 293 | 0.0 | 0.0 | 0.00 | 0.00 | 0.00 | 33 | 1001.1 |
| 20260509032824 | 58 | 304 | 0.0 | 0.0 | 0.00 | 0.00 | 0.00 | 33 | 1001.0 |
| 20260509032340 | 59 | 294 | 0.0 | 0.0 | 0.00 | 0.00 | 0.00 | 32 | 1001.0 |
| 20260509031847 | 59 | 293 | 0.0 | 0.0 | 0.00 | 0.00 | 0.00 | 32 | 1001.0 |
| 20260509031326 | 59 | 288 | 0.0 | 0.0 | 0.00 | 0.00 | 0.00 | 32 | 1000.9 |
| 20260509030823 | 60 | 327 | 0.0 | 0.0 | 0.00 | 0.00 | 0.00 | 32 | 1000.8 |
| 20260509030339 | 60 | 304 | 0.0 | 0.0 | 0.00 | 0.00 | 0.00 | 31 | 1000.9 |
| 20260509025838 | 60 | 308 | 0.0 | 0.0 | 0.00 | 0.00 | 0.00 | 31 | 1000.9 |
| 20260509025333 | 60 | 306 | 0.0 | 0.0 | 0.00 | 0.00 | 0.00 | 30 | 1000.8 |
| 20260509024821 | 61 | 297 | 0.0 | 1.0 | 0.00 | 0.00 | 0.00 | 30 | 1000.7 |
| 20260509024323 | 61 | 355 | 0.0 | 1.0 | 0.00 | 0.00 | 0.00 | 30 | 1000.7 |
| 20260509023841 | 61 | 313 | 0.0 | 4.0 | 0.00 | 0.00 | 0.00 | 29 | 1000.6 |
| 20260509023327 | 61 | 302 | 0.0 | 4.0 | 0.00 | 0.00 | 0.00 | 29 | 1000.7 |
| 20260509022830 | 62 | 304 | 0.0 | 4.0 | 0.00 | 0.00 | 0.00 | 29 | 1000.7 |
| 20260509022347 | 62 | 292 | 0.0 | 5.0 | 0.00 | 0.00 | 0.00 | 29 | 1000.6 |
| 20260509021842 | 62 | 323 | 0.0 | 5.0 | 0.00 | 0.00 | 0.00 | 29 | 1000.5 |
| 20260509021343 | 62 | 321 | 0.0 | 5.0 | 0.00 | 0.00 | 0.00 | 29 | 1000.5 |
| 20260509020828 | 63 | 313 | 0.0 | 4.0 | 0.00 | 0.00 | 0.00 | 29 | 1000.4 |
| 20260509020315 | 63 | 303 | 1.0 | 7.0 | 0.00 | 0.00 | 0.00 | 29 | 1000.3 |
| 20260509015826 | 63 | 338 | 0.0 | 7.0 | 0.00 | 0.00 | 0.00 | 29 | 1000.2 |
| 20260509015342 | 64 | 278 | 1.0 | 9.0 | 0.00 | 0.00 | 0.00 | 29 | 1000.2 |
| 20260509014830 | 64 | 331 | 1.0 | 9.0 | 0.00 | 0.00 | 0.00 | 30 | 1000.0 |
| 20260509014324 | 64 | 348 | 1.0 | 6.0 | 0.00 | 0.00 | 0.00 | 30 | 999.9 |
| 20260509013820 | 65 | 288 | 1.0 | 6.0 | 0.00 | 0.00 | 0.00 | 30 | 999.9 |
| 20260509013332 | 65 | 324 | 1.0 | 6.0 | 0.00 | 0.00 | 0.00 | 30 | 999.7 |
| 20260509012835 | 66 | 279 | 0.0 | 6.0 | 0.00 | 0.00 | 0.00 | 29 | 999.6 |
| 20260509012324 | 66 | 315 | 0.0 | 6.0 | 0.00 | 0.00 | 0.00 | 29 | 999.5 |
| 20260509011820 | 66 | 307 | 1.0 | 5.0 | 0.00 | 0.00 | 0.00 | 29 | 999.4 |
| 20260509011324 | 67 | 327 | 1.0 | 7.0 | 0.00 | 0.00 | 0.00 | 28 | 999.3 |
| 20260509010831 | 67 | 301 | 0.0 | 7.0 | 0.00 | 0.00 | 0.00 | 28 | 999.2 |
| 20260509010327 | 67 | 275 | 0.0 | 4.0 | 0.00 | 0.00 | 0.00 | 27 | 999.2 |
| 20260509005832 | 68 | 300 | 0.0 | 5.0 | 0.00 | 0.00 | 0.00 | 26 | 999.0 |
| 20260509005321 | 68 | 302 | 0.0 | 6.0 | 0.00 | 0.00 | 0.00 | 26 | 999.0 |
| 20260509004817 | 68 | 272 | 1.0 | 4.0 | 0.00 | 0.00 | 0.00 | 25 | 998.9 |
| 20260509004321 | 68 | 288 | 1.0 | 4.0 | 0.00 | 0.00 | 0.00 | 25 | 998.9 |
| 20260509003828 | 69 | 336 | 0.0 | 6.0 | 0.00 | 0.00 | 0.00 | 24 | 998.9 |
| 20260509003324 | 69 | 331 | 1.0 | 5.0 | 0.00 | 0.00 | 0.00 | 24 | 998.9 |
| 20260509002848 | 69 | 292 | 0.0 | 5.0 | 0.00 | 0.00 | 0.00 | 24 | 998.8 |
| 20260509002344 | 69 | 298 | 1.0 | 6.0 | 0.00 | 0.00 | 0.00 | 24 | 998.7 |